SL-16 DEB, 22351

Orbit data source: Space-Track

SL-16 DEB, 22351 is space debris in LEO originally from a launch on Fri, 25 Dec 1992 UTC launched from the Tyuratam Missile And Space Complex (TTMTR). Debris objects in space refer to the collection of defunct objects orbiting the Earth. Examples of debris include non-operational satellites, rocket bodies, and fragments generated from explosions, collisions, or faulty payload assembly.

Loading next visibility...
Identifier
22351, 1992-093AQ
Orbit
LEO
Country
Flag of CISCIS
Related business
Manufacturer
Unknown
Mission
Spacecraft
Bus & Motor
Unknown
Mass
Unknown
Launch date (UTC)
1992-12-25 (33 years ago)
Launch vehicle
Unknown
Launch site
Tyuratam Missile And Space Complex (TTMTR)
Object type
Payload
Rocket body
Debris
Shape & HBR
Unknown shape, 0.1 m
Radar Cross Section
Small (<0.1 m²)

Expand to show TLE details & history
Last TLE update: 19 hours ago

TLE from 19 hours ago
0 SL-16 DEB
1 22351U 92093AQ  25295.86234463  .00000746  00000-0  48068-3 0  9991
2 22351  70.9086  42.0817 0100908  83.9639  30.0409 14.03825406676360
Epoch: 2025-10-22T20:41Z
TLE epoch observation values (Epoch: 2025-10-22T20:41:46.576Z)
Latitude
59.34783°
Longitude
-155.40842°
Altitude
826.866 km
Speed
7.478 km/s
True Right ascension
12h 26m 15s
True Declination
59° 11' 54"
Sunlit
Object was in daylight at epoch
Visualization orbit readout
Latitude
Unknown
Longitude
Unknown
Altitude
Unknown
Speed
Unknown
Apparent Right ascension
Unknown
Apparent Declination
Unknown
Sunlit
N/A
Visualization observer readout
Local Sidereal Time
10:34:45
Azimuth
Unknown
Elevation
Unknown
Doppler factor
Unknown
Orbital elements
Apogee altitude
951.749 km
Perigee altitude
805.298 km
Semi-major axis
7,256.66 km
Eccentricity
0.01009
Inclination
70.9086°
RAAN
42.0817°
Arg. of periapsis
83.9639°
True anomaly
30.62615°
Mean anomaly
30.0409°
Eccentric anomaly
30.33288°
Mean motion
3.51106 °/min
Orbital period
102.53 mins
BSTAR
0.00048068
Loading maneuver chart data...
Computing Atmospheric mass density...

Documentation

Showing up to 5 results
|